DateTimeUTC,F1_A11,F1_S11,BsB_S11,BsG_S11,BsR_S11,BbsB_S11,BbsG_S11,BbsR_S11,BaB_A11,BaG_A11,BaR_A11,Tu_S11,T_S11,Uu_S11,U_S11,P_S11,T1_A11
2021-07-10T09:00:00Z,00000200,20000000,,,,,,,-000.18,0000.13,0000.11,17.9,24.9,04.0,02.6,0675.2,31.0
2021-07-10T09:01:00Z,00000200,20000000,,,,,,,0000.24,0000.13,0000.07,17.9,24.9,04.0,02.6,0675.2,31.0
2021-07-10T09:02:00Z,00000200,20000000,,,,,,,-000.26,0000.18,-000.12,17.9,24.9,04.0,02.6,0675.2,31.0
2021-07-10T09:03:00Z,00000200,60000000,,,,,,,0000.55,-000.19,0000.22,17.9,24.9,04.0,02.6,0675.2,31.0
2021-07-10T09:04:00Z,00000200,40000000,0000.87,0000.39,0000.25,0000.85,0000.18,0000.18,0000.19,0000.66,0000.03,18.0,24.7,04.5,03.0,0676.2,31.0
2021-07-10T09:05:00Z,00000200,00000000,0000.93,0000.20,0000.37,0000.32,0000.40,0000.23,0000.15,0000.20,0000.47,18.1,24.7,04.6,03.1,0676.3,31.0
2021-07-10T09:06:00Z,00000200,00000000,0000.73,0000.51,0000.28,0000.93,0000.17,0000.03,-000.05,0000.03,0000.14,18.2,24.7,04.5,03.0,0676.3,31.0
2021-07-10T09:07:00Z,00000200,00000000,0000.03,0000.43,0000.43,-000.04,0000.06,0000.25,0000.37,-000.04,0000.42,18.3,24.7,04.7,03.1,0676.3,31.0
2021-07-10T09:08:00Z,00000200,00000000,-000.08,0000.26,0000.12,0000.31,-000.11,0000.04,0000.07,0000.05,-000.37,18.3,24.7,04.6,03.1,0676.3,31.0
2021-07-10T09:09:00Z,00000200,00000000,0000.72,-000.08,0000.20,0000.03,0000.02,0000.12,-000.05,0000.27,0000.28,18.3,24.7,04.6,03.1,0676.3,31.1
2021-07-10T09:10:00Z,00000200,00000000,0000.89,0000.40,0000.21,0000.67,0000.11,-000.07,0000.02,-000.08,-000.23,18.3,24.7,04.7,03.2,0676.3,31.1
2021-07-10T09:11:00Z,00000200,00000000,0000.10,0000.48,0000.27,0000.18,0000.17,0000.04,0000.10,-000.35,-000.05,18.2,24.7,04.7,03.2,0676.3,31.0
2021-07-10T09:12:00Z,00000200,00000000,0000.30,0000.57,0000.36,0000.34,0000.19,0000.20,0000.15,0000.29,-000.07,18.2,24.7,04.7,03.2,0676.3,31.0
2021-07-10T09:13:00Z,00000200,00000000,0001.33,0000.53,0000.23,0000.53,0000.08,-000.20,-000.05,-000.02,0000.41,18.2,24.7,04.7,03.2,0676.3,31.0
2021-07-10T09:14:00Z,00000200,00000000,0000.44,0000.23,0000.44,0000.31,-000.00,0000.16,0000.13,0000.22,-000.20,18.2,24.7,04.8,03.2,0676.3,31.0
2021-07-10T09:15:00Z,00000200,00000000,0000.77,0000.39,0000.22,0000.98,0000.22,-000.18,0000.31,0000.27,0000.32,18.2,24.6,04.8,03.2,0676.3,31.0
2021-07-10T09:16:00Z,00000200,00000000,0000.86,0000.55,0000.42,0000.31,0000.21,0000.50,0000.06,0000.05,-000.36,18.2,24.6,04.8,03.2,0676.2,31.0
2021-07-10T09:17:00Z,00000200,00000000,0001.13,0000.40,0000.48,0001.43,0000.07,0000.21,0000.16,0000.00,0000.37,18.1,24.6,04.9,03.3,0676.3,31.0
2021-07-10T09:18:00Z,00000200,00000000,0001.05,0000.51,0000.21,0000.12,-000.07,0000.17,-000.01,0000.49,0000.45,18.1,24.6,05.0,03.3,0676.3,31.0
2021-07-10T09:19:00Z,00000200,00000000,0000.84,0000.60,0000.55,0000.01,-000.29,-000.11,0000.25,0000.20,0000.15,18.2,24.6,05.0,03.4,0676.3,31.0
2021-07-10T09:20:00Z,00000200,00000000,0000.46,0000.50,0000.24,0000.26,-000.11,0000.29,0000.34,0000.08,-000.36,18.2,24.6,05.1,03.4,0676.3,31.0
2021-07-10T09:21:00Z,00000200,00000000,0000.42,0000.50,0000.41,0000.31,0000.05,0000.13,0000.02,-000.03,0000.33,18.3,24.7,05.0,03.4,0676.3,31.1
2021-07-10T09:22:00Z,00000200,00000000,0001.07,0000.39,0000.14,0000.62,-000.11,-000.10,-000.12,0000.19,0000.21,18.4,24.7,05.0,03.4,0676.3,31.1
2021-07-10T09:23:00Z,00000200,00000000,0001.24,0000.28,0000.18,0000.87,0000.18,0000.16,0000.28,0000.02,-000.27,18.4,24.7,05.0,03.4,0676.3,31.1
2021-07-10T09:24:00Z,00000200,00000000,0000.44,0000.56,0000.37,0000.54,0000.10,0000.08,0000.13,-000.03,0000.42,18.4,24.8,05.0,03.4,0676.3,31.0
2021-07-10T09:25:00Z,00000200,00000000,0001.28,0000.40,0000.24,0000.30,0000.07,0000.15,-000.13,-000.10,0000.05,18.4,24.8,05.1,03.4,0676.3,31.0
2021-07-10T09:26:00Z,00000200,00000000,0001.01,-000.01,0000.03,0000.54,0000.15,-000.08,0000.47,0000.17,-000.01,18.3,24.7,05.1,03.4,0676.3,31.0
2021-07-10T09:27:00Z,00000200,00000000,0000.63,0000.43,-000.09,0000.29,0000.11,-000.20,0000.13,0000.27,-000.05,18.3,24.7,05.1,03.5,0676.4,31.0
2021-07-10T09:28:00Z,00000200,00000000,0000.58,0000.40,0000.40,-000.13,-000.15,0000.17,-000.07,-000.16,-000.08,18.3,24.7,05.3,03.6,0676.3,31.0
2021-07-10T09:29:00Z,00000200,00000000,0001.38,0000.67,0000.62,0000.56,-000.36,0000.16,0000.04,0000.31,0000.16,18.3,24.7,05.3,03.5,0676.3,31.0
2021-07-10T09:30:00Z,00000200,00000000,0000.99,0000.62,0000.47,0000.10,0000.19,-000.01,0000.14,0000.16,0000.43,18.3,24.7,05.3,03.6,0676.3,31.0
2021-07-10T09:31:00Z,00000200,00000000,0001.31,0000.35,0000.32,-000.27,-000.02,-000.33,0000.15,-000.00,-000.25,18.2,24.7,05.3,03.6,0676.3,31.0
2021-07-10T09:32:00Z,00000200,00000000,0001.08,0000.44,0000.51,0000.21,0000.26,0000.06,0000.11,-000.13,0000.19,18.2,24.7,05.3,03.5,0676.3,31.0
2021-07-10T09:33:00Z,00000200,00000000,0000.48,0000.29,0000.33,-000.11,0000.12,0000.01,0000.06,0000.34,-000.06,18.2,24.6,05.2,03.5,0676.4,31.0
2021-07-10T09:34:00Z,00000200,00000000,0000.64,0000.11,0000.02,0000.15,0000.27,0000.38,-000.10,0000.22,0000.35,18.3,24.6,05.2,03.5,0676.4,31.0
2021-07-10T09:35:00Z,00000200,00000000,0000.45,0000.03,0000.18,0000.44,-000.21,-000.01,0000.40,0000.16,0000.24,18.3,24.7,05.3,03.6,0676.4,31.0
2021-07-10T09:36:00Z,00000200,00000000,0001.12,0000.37,0000.27,0000.74,0000.07,0000.49,0000.30,0000.32,0000.13,18.4,24.7,05.3,03.6,0676.4,31.1
2021-07-10T09:37:00Z,00000200,00000000,0000.83,0000.46,0000.43,0000.03,0000.18,-000.07,0000.12,-000.04,-000.02,18.5,24.8,05.3,03.6,0676.4,31.0
2021-07-10T09:38:00Z,00000200,00000000,0000.71,0000.47,0000.24,0000.45,-000.13,0000.13,-000.34,0000.05,-000.00,18.5,24.8,05.3,03.6,0676.4,31.0
2021-07-10T09:39:00Z,00000200,00000000,0001.28,0000.54,0000.38,-000.29,-000.06,0000.06,0000.42,0000.05,0000.15,18.5,24.8,05.3,03.6,0676.4,31.1
2021-07-10T09:40:00Z,00000200,00000000,0001.43,0000.28,0000.33,0000.70,0000.06,0000.05,0000.33,0000.10,0000.12,18.5,24.8,05.4,03.6,0676.4,31.1
2021-07-10T09:41:00Z,00000200,00000000,0001.10,0000.56,0000.38,0000.48,0000.11,-000.05,-000.13,0000.44,-000.06,18.4,24.8,05.3,03.6,0676.4,31.0
2021-07-10T09:42:00Z,00000200,00000000,0000.40,0000.50,0000.36,0000.49,0000.15,0000.06,-000.14,-000.08,-000.05,18.4,24.8,05.4,03.6,0676.4,31.0
2021-07-10T09:43:00Z,00000200,00000000,0001.07,0000.46,0000.06,0000.16,0000.01,-000.01,0000.27,-000.27,0000.08,18.4,24.7,05.4,03.6,0676.4,31.0
2021-07-10T09:44:00Z,00000200,00000000,0001.16,0000.28,0000.28,0000.63,0000.13,0000.45,0000.08,0000.21,0000.01,18.4,24.8,05.5,03.7,0676.3,31.0
2021-07-10T09:45:00Z,00000200,00000000,0001.93,0000.46,0000.48,0000.16,0000.25,0000.26,-000.05,-000.29,0000.44,18.4,24.8,05.4,03.6,0676.3,31.0
2021-07-10T09:46:00Z,00000200,00000000,0001.00,0000.65,0000.39,0000.29,0000.02,0000.23,0000.06,0000.39,-000.10,18.4,24.7,05.4,03.7,0676.3,31.0
2021-07-10T09:47:00Z,00000200,00000000,0000.53,0000.61,0000.39,0000.13,-000.11,0000.15,0000.20,0000.37,0000.02,18.3,24.7,05.5,03.7,0676.3,31.0
2021-07-10T09:48:00Z,00000200,00000000,0001.41,0000.42,0000.32,0000.40,0000.10,0000.01,0000.26,-000.03,0000.21,18.3,24.7,05.5,03.7,0676.3,31.0
2021-07-10T09:49:00Z,00000200,00000000,0000.37,0000.52,0000.42,0000.02,0000.43,0000.24,-000.14,0000.11,-000.01,18.3,24.7,05.6,03.8,0676.3,31.0
2021-07-10T09:50:00Z,00000200,00000000,0000.74,0000.56,0000.35,0000.15,0000.17,0000.13,0000.35,-000.23,0000.12,18.3,24.7,05.4,03.7,0676.3,31.0
2021-07-10T09:51:00Z,00000200,00000000,0001.44,0000.90,0000.48,0000.50,-000.01,0000.46,-000.08,0000.50,0000.01,18.3,24.7,05.4,03.7,0676.3,31.0
2021-07-10T09:52:00Z,00000200,00000000,0000.48,0000.40,0000.51,0000.52,0000.15,0000.19,0000.31,0000.14,-000.21,18.3,24.7,05.6,03.8,0676.3,31.0
2021-07-10T09:53:00Z,00000200,00000000,0001.02,0000.39,0000.31,0000.33,-000.05,0000.29,-000.17,-000.06,0000.47,18.2,24.6,05.6,03.8,0676.3,31.0
2021-07-10T09:54:00Z,00000200,00000000,0001.12,0000.60,0000.25,-000.23,0000.03,0000.13,0000.34,0000.15,-000.32,18.2,24.6,05.6,03.8,0676.3,31.0
2021-07-10T09:55:00Z,00000200,00000000,0001.07,0000.49,0000.42,0000.15,0000.16,0000.26,0000.17,0000.10,0000.28,18.2,24.6,05.5,03.7,0676.3,31.0
2021-07-10T09:56:00Z,00000200,00000000,0001.66,0000.39,0000.25,0000.30,0000.28,0000.32,-000.02,0000.12,0000.17,18.2,24.6,05.5,03.7,0676.3,31.0
2021-07-10T09:57:00Z,00000200,40000000,,,,,,,-000.26,-000.11,-000.16,18.2,24.7,04.9,03.3,0676.4,31.0
2021-07-10T09:58:00Z,00000200,60000000,,,,,,,0000.32,0000.01,0000.24,18.0,24.7,05.0,03.3,0675.4,31.0
2021-07-10T09:59:00Z,00000200,20000000,,,,,,,-000.07,0000.00,-000.14,17.9,24.8,05.3,03.5,0675.3,31.0
